ANA7368 RJAA-WSSS

Flight info

Callsign ANA7368
Flight time N/A
Altitude 34000
Route SAMUS BUBDO A590 MDE/N0493F360 A590 JOM M767 TOMAN KARTO2B
Aircraft B77W/H-SDE1E2E3FGHIJ2J3J4J5M1RWXY/LB1D1

Departure

Time 2026-05-04 02:04
Airport Narita International Airport (RJAA)

Arrival

Time N/A
Airport Singapore Changi Airport (WSSS)
Time Latitude Longitude Altitude Speed Heading
2026-05-04 01:35 35.76069 140.38448 145 ft 0 kts 60°
2026-05-04 01:54 35.76064 140.38435 142 ft 2 kts 59°
2026-05-04 01:54 35.76056 140.38420 142 ft 2 kts 59°
2026-05-04 01:55 35.76049 140.38403 142 ft 2 kts 60°
2026-05-04 01:55 35.76042 140.38390 143 ft 0 kts 60°
2026-05-04 01:55 35.76036 140.38377 143 ft 2 kts 46°
2026-05-04 01:55 35.76024 140.38368 143 ft 2 kts 19°
2026-05-04 01:56 35.76010 140.38365 143 ft 2 kts 357°
2026-05-04 01:56 35.75996 140.38368 143 ft 2 kts 335°
2026-05-04 01:56 35.75991 140.38371 143 ft 0 kts 329°
2026-05-04 01:58 35.75997 140.38368 143 ft 1 kts 329°
2026-05-04 01:59 35.76016 140.38353 143 ft 4 kts 328°
2026-05-04 01:59 35.76045 140.38324 144 ft 7 kts 300°
2026-05-04 01:59 35.76040 140.38261 144 ft 8 kts 242°
2026-05-04 01:59 35.76011 140.38191 144 ft 9 kts 256°
2026-05-04 02:00 35.76028 140.38109 142 ft 11 kts 309°
2026-05-04 02:00 35.76102 140.38048 141 ft 13 kts 328°
2026-05-04 02:00 35.76186 140.37987 140 ft 14 kts 329°
2026-05-04 02:00 35.76275 140.37923 140 ft 14 kts 328°
2026-05-04 02:01 35.76403 140.37831 139 ft 13 kts 330°
2026-05-04 02:01 35.76843 140.37512 131 ft 11 kts 329°
2026-05-04 02:01 35.77219 140.37242 129 ft 9 kts 329°
2026-05-04 02:01 35.77441 140.37083 127 ft 8 kts 328°
2026-05-04 02:02 35.77486 140.37036 128 ft 9 kts 296°
2026-05-04 02:02 35.77483 140.36958 129 ft 8 kts 245°
2026-05-04 02:02 35.77456 140.36900 130 ft 6 kts 238°
2026-05-04 02:02 35.77432 140.36871 131 ft 4 kts 209°
2026-05-04 02:03 35.77401 140.36868 132 ft 5 kts 167°
2026-05-04 02:03 35.77370 140.36881 132 ft 3 kts 156°
2026-05-04 02:03 35.77358 140.36888 132 ft 0 kts 150°
2026-05-04 02:03 35.77320 140.36916 132 ft 25 kts 151°
2026-05-04 02:04 35.76934 140.37186 134 ft 99 kts 151°
2026-05-04 02:04 35.76138 140.37764 141 ft 164 kts 150°
2026-05-04 02:04 35.75082 140.38556 636 ft 182 kts 155°
2026-05-04 02:04 35.73989 140.39378 1431 ft 190 kts 157°
2026-05-04 02:05 35.72831 140.40212 2056 ft 198 kts 157°
2026-05-04 02:05 35.71577 140.41106 2505 ft 218 kts 158°
2026-05-04 02:05 35.70221 140.42068 3019 ft 237 kts 158°
2026-05-04 02:05 35.68739 140.43123 3596 ft 255 kts 158°
2026-05-04 02:06 35.67195 140.44228 4451 ft 260 kts 158°
2026-05-04 02:06 35.65632 140.45351 5308 ft 265 kts 159°
2026-05-04 02:06 35.64453 140.46196 5888 ft 271 kts 159°
2026-05-04 02:06 35.62832 140.47360 6749 ft 275 kts 160°
2026-05-04 02:07 35.61192 140.48541 7686 ft 276 kts 161°
2026-05-04 02:07 35.59528 140.49736 8532 ft 280 kts 161°
2026-05-04 02:07 35.57843 140.50954 9402 ft 282 kts 160°
2026-05-04 02:07 35.56151 140.52173 10216 ft 285 kts 161°
2026-05-04 02:08 35.54398 140.53420 10756 ft 300 kts 161°
2026-05-04 02:08 35.52564 140.54727 11296 ft 315 kts 160°
2026-05-04 02:08 35.50591 140.56137 11783 ft 332 kts 160°
2026-05-04 02:08 35.48583 140.57576 12301 ft 347 kts 160°
2026-05-04 02:09 35.46442 140.59109 12795 ft 362 kts 159°
2026-05-04 02:09 35.44257 140.60808 13295 ft 384 kts 152°
2026-05-04 02:09 35.42203 140.63042 13802 ft 409 kts 142°
2026-05-04 02:09 35.40393 140.65851 14315 ft 431 kts 133°
2026-05-04 02:10 35.38712 140.68929 15038 ft 437 kts 133°
2026-05-04 02:10 35.37029 140.72025 15810 ft 439 kts 133°
2026-05-04 02:10 35.35348 140.75093 16494 ft 444 kts 133°
2026-05-04 02:10 35.33606 140.78253 17102 ft 450 kts 133°
2026-05-04 02:11 35.31828 140.81462 17649 ft 457 kts 133°
2026-05-04 02:11 35.30048 140.84671 18364 ft 459 kts 133°
2026-05-04 02:11 35.28277 140.87856 19064 ft 461 kts 133°
2026-05-04 02:11 35.26459 140.91116 19623 ft 467 kts 133°
2026-05-04 02:12 35.24527 140.94299 20137 ft 464 kts 140°
2026-05-04 02:12 35.22262 140.97041 20635 ft 458 kts 149°
2026-05-04 02:12 35.19692 140.99272 21093 ft 452 kts 159°
2026-05-04 02:12 35.16904 141.00923 21715 ft 441 kts 168°
2026-05-04 02:13 35.13981 141.01997 22309 ft 432 kts 176°
2026-05-04 02:13 35.11059 141.02510 22851 ft 428 kts 182°
2026-05-04 02:13 35.08093 141.02809 23441 ft 428 kts 183°
2026-05-04 02:13 35.05130 141.03082 24070 ft 429 kts 184°
2026-05-04 02:14 35.02137 141.03345 24599 ft 432 kts 184°
2026-05-04 02:14 34.99111 141.03600 24984 ft 439 kts 184°
2026-05-04 02:14 34.96044 141.03853 25468 ft 443 kts 183°
2026-05-04 02:14 34.92954 141.04105 26004 ft 446 kts 184°
2026-05-04 02:15 34.89857 141.04353 26485 ft 450 kts 184°
2026-05-04 02:15 34.86714 141.04604 26965 ft 454 kts 184°
2026-05-04 02:15 34.83571 141.04852 27452 ft 458 kts 184°
2026-05-04 02:15 34.80355 141.05107 28013 ft 460 kts 184°
2026-05-04 02:16 34.77182 141.05356 28468 ft 464 kts 184°
2026-05-04 02:16 34.73949 141.05609 29005 ft 466 kts 184°
2026-05-04 02:16 34.70701 141.05862 29597 ft 467 kts 183°
2026-05-04 02:16 34.67465 141.06116 30277 ft 466 kts 184°
2026-05-04 02:17 34.64265 141.06120 30988 ft 456 kts 191°
2026-05-04 02:17 34.61184 141.05605 31625 ft 447 kts 198°
2026-05-04 02:17 34.58215 141.04588 32306 ft 438 kts 205°
2026-05-04 02:17 34.55452 141.03134 32934 ft 431 kts 212°
2026-05-04 02:18 34.52909 141.01280 33530 ft 426 kts 218°
2026-05-04 02:18 34.50590 140.99049 33990 ft 425 kts 224°
2026-05-04 02:18 34.46314 140.94019 34040 ft 421 kts 226°
2026-05-04 02:19 34.42161 140.89108 34037 ft 418 kts 226°
2026-05-04 02:19 34.37952 140.84166 34040 ft 420 kts 226°
2026-05-04 02:20 34.33753 140.79263 34028 ft 418 kts 226°
2026-05-04 02:20 34.29537 140.74362 34042 ft 421 kts 226°
2026-05-04 02:21 34.25313 140.69459 34041 ft 419 kts 226°
2026-05-04 02:21 34.21106 140.64587 34043 ft 418 kts 226°
2026-05-04 02:22 34.16892 140.59715 34056 ft 419 kts 226°
2026-05-04 02:22 34.12682 140.54855 34055 ft 418 kts 226°
2026-05-04 02:23 34.08444 140.49970 34068 ft 420 kts 226°
2026-05-04 02:23 34.04218 140.45106 34061 ft 418 kts 226°
2026-05-04 02:24 34.00030 140.40292 34064 ft 418 kts 226°
2026-05-04 02:24 33.95770 140.35403 34063 ft 420 kts 226°
2026-05-04 02:25 33.91550 140.30565 34070 ft 421 kts 225°
2026-05-04 02:25 33.87296 140.25697 34078 ft 419 kts 225°
2026-05-04 02:26 33.83202 140.20734 34107 ft 420 kts 231°
2026-05-04 02:26 33.79589 140.15147 34094 ft 419 kts 233°
2026-05-04 02:27 33.76035 140.09625 34112 ft 419 kts 232°
2026-05-04 02:27 33.72454 140.04074 34104 ft 419 kts 232°
2026-05-04 02:28 33.68901 139.98579 34099 ft 418 kts 233°
2026-05-04 02:28 33.65323 139.93054 34108 ft 419 kts 232°
2026-05-04 02:29 33.61742 139.87534 34113 ft 419 kts 232°
2026-05-04 02:29 33.58155 139.82014 34113 ft 419 kts 233°
2026-05-04 02:30 33.54575 139.76514 34107 ft 418 kts 233°
2026-05-04 02:30 33.50979 139.70996 34111 ft 419 kts 233°
2026-05-04 02:31 33.47387 139.65492 34109 ft 419 kts 232°
2026-05-04 02:31 33.43794 139.59996 34112 ft 418 kts 232°
2026-05-04 02:32 33.40226 139.54546 34111 ft 418 kts 232°
2026-05-04 02:32 33.36614 139.49039 34125 ft 420 kts 233°
2026-05-04 02:33 33.33026 139.43574 34121 ft 418 kts 232°
2026-05-04 02:33 33.29417 139.38088 34113 ft 417 kts 232°
2026-05-04 02:34 33.25827 139.32636 34135 ft 419 kts 232°
2026-05-04 02:34 33.22204 139.27144 34138 ft 418 kts 232°
2026-05-04 02:35 33.18630 139.21735 34133 ft 416 kts 232°
2026-05-04 02:35 33.15029 139.16290 34134 ft 419 kts 232°
2026-05-04 02:36 33.11409 139.10828 34129 ft 420 kts 232°
2026-05-04 02:36 33.07785 139.05365 34133 ft 418 kts 232°
2026-05-04 02:37 33.04157 138.99907 34132 ft 418 kts 232°
2026-05-04 02:37 33.00555 138.94493 34141 ft 419 kts 232°
2026-05-04 02:38 32.96915 138.89032 34138 ft 419 kts 232°
2026-05-04 02:38 32.93305 138.83623 34136 ft 416 kts 232°
2026-05-04 02:39 32.89685 138.78207 34147 ft 417 kts 232°
2026-05-04 02:39 32.86062 138.72797 34154 ft 418 kts 232°
2026-05-04 02:40 32.82452 138.67412 34154 ft 417 kts 232°
2026-05-04 02:40 32.78823 138.62006 34149 ft 417 kts 232°
2026-05-04 02:41 32.75194 138.56609 34156 ft 417 kts 232°
2026-05-04 02:41 32.71582 138.51244 34160 ft 418 kts 232°
2026-05-04 02:42 32.67948 138.45856 34165 ft 417 kts 232°
2026-05-04 02:42 32.64320 138.40482 34164 ft 417 kts 232°
2026-05-04 02:43 32.60692 138.35117 34176 ft 419 kts 232°
2026-05-04 02:43 32.57049 138.29738 34190 ft 417 kts 232°
2026-05-04 02:44 32.53398 138.24355 34191 ft 417 kts 232°
2026-05-04 02:44 32.49747 138.18979 34186 ft 418 kts 232°
2026-05-04 02:45 32.46117 138.13641 34189 ft 418 kts 231°
2026-05-04 02:45 32.42462 138.08276 34183 ft 418 kts 232°
2026-05-04 02:46 32.38801 138.02908 34184 ft 419 kts 232°
2026-05-04 02:46 32.35136 137.97543 34181 ft 417 kts 232°
2026-05-04 02:47 32.31482 137.92201 34184 ft 420 kts 232°
2026-05-04 02:47 32.27813 137.86845 34183 ft 418 kts 232°
2026-05-04 02:48 32.24145 137.81497 34187 ft 421 kts 232°
2026-05-04 02:48 32.20462 137.76138 34191 ft 419 kts 232°
2026-05-04 02:49 32.16779 137.70784 34181 ft 419 kts 232°
2026-05-04 02:49 32.13091 137.65431 34188 ft 419 kts 232°
2026-05-04 02:50 32.09407 137.60092 34193 ft 419 kts 232°
2026-05-04 02:50 32.05735 137.54776 34190 ft 420 kts 232°
2026-05-04 02:51 32.02032 137.49425 34189 ft 421 kts 232°
2026-05-04 02:51 31.98329 137.44078 34199 ft 420 kts 232°
2026-05-04 02:52 31.94644 137.38770 34211 ft 422 kts 232°
2026-05-04 02:52 31.90946 137.33446 34223 ft 419 kts 231°
2026-05-04 02:53 31.87236 137.28113 34237 ft 419 kts 231°
2026-05-04 02:53 31.83550 137.22824 34240 ft 420 kts 232°
2026-05-04 02:54 31.79839 137.17505 34241 ft 418 kts 231°
2026-05-04 02:54 31.76140 137.12210 34244 ft 420 kts 231°
2026-05-04 02:55 31.70574 137.04257 34239 ft 421 kts 231°
2026-05-04 02:56 31.66839 136.98930 34240 ft 421 kts 232°
2026-05-04 02:56 31.63110 136.93619 34243 ft 420 kts 231°
2026-05-04 02:57 31.59386 136.88324 34244 ft 423 kts 231°
2026-05-04 02:57 31.55651 136.83019 34244 ft 421 kts 232°
2026-05-04 02:58 31.51922 136.77730 34244 ft 423 kts 232°
2026-05-04 02:58 31.48149 136.72386 34245 ft 422 kts 232°
2026-05-04 02:59 31.44411 136.67099 34241 ft 421 kts 232°
2026-05-04 02:59 31.40182 136.62334 34239 ft 422 kts 224°
2026-05-04 03:00 31.35741 136.57779 34241 ft 427 kts 224°
2026-05-04 03:00 31.31266 136.53209 34234 ft 425 kts 224°
2026-05-04 03:01 31.26799 136.48654 34234 ft 425 kts 224°
2026-05-04 03:01 31.22309 136.44086 34239 ft 428 kts 224°
2026-05-04 03:02 31.17802 136.39505 34234 ft 428 kts 224°
2026-05-04 03:02 31.13315 136.34953 34235 ft 429 kts 223°
2026-05-04 03:03 31.08809 136.30386 34254 ft 427 kts 223°
2026-05-04 03:03 31.04325 136.25848 34268 ft 427 kts 223°
2026-05-04 03:04 30.99805 136.21280 34261 ft 429 kts 224°
2026-05-04 03:04 30.95309 136.16744 34267 ft 428 kts 223°
2026-05-04 03:05 30.90764 136.12161 34270 ft 431 kts 223°
2026-05-04 03:05 30.86229 136.07596 34279 ft 430 kts 223°
2026-05-04 03:06 30.81716 136.03059 34280 ft 429 kts 223°
2026-05-04 03:06 30.77168 135.98491 34288 ft 431 kts 223°
2026-05-04 03:07 30.72643 135.93955 34288 ft 430 kts 223°
2026-05-04 03:07 30.68087 135.89391 34291 ft 431 kts 223°
2026-05-04 03:08 30.63556 135.84859 34279 ft 431 kts 224°
2026-05-04 03:08 30.58985 135.80293 34278 ft 433 kts 224°
2026-05-04 03:09 30.54414 135.75732 34278 ft 433 kts 224°
2026-05-04 03:09 30.49843 135.71179 34283 ft 433 kts 224°
2026-05-04 03:10 30.45275 135.66634 34283 ft 434 kts 224°
2026-05-04 03:10 30.40684 135.62071 34285 ft 433 kts 224°
2026-05-04 03:11 30.36108 135.57529 34294 ft 433 kts 224°
2026-05-04 03:11 30.31511 135.52972 34295 ft 433 kts 224°
2026-05-04 03:12 30.26946 135.48453 34300 ft 434 kts 224°
2026-05-04 03:12 30.22328 135.43887 34297 ft 433 kts 224°
2026-05-04 03:13 30.17742 135.39359 34303 ft 433 kts 224°
2026-05-04 03:13 30.13172 135.34853 34306 ft 435 kts 223°
2026-05-04 03:14 30.08596 135.30258 34318 ft 435 kts 224°
2026-05-04 03:14 30.04038 135.25642 34324 ft 437 kts 224°
2026-05-04 03:15 29.99467 135.21024 34325 ft 436 kts 224°
2026-05-04 03:15 29.94898 135.16415 34327 ft 436 kts 224°
2026-05-04 03:16 29.90315 135.11801 34322 ft 435 kts 224°
2026-05-04 03:16 29.85768 135.07228 34337 ft 434 kts 224°
2026-05-04 03:17 29.81232 135.02673 34335 ft 434 kts 224°
2026-05-04 03:17 29.76675 134.98102 34335 ft 434 kts 224°
2026-05-04 03:18 29.72102 134.93521 34337 ft 435 kts 224°
2026-05-04 03:18 29.67520 134.88937 34339 ft 437 kts 224°
2026-05-04 03:19 29.62916 134.84338 34336 ft 435 kts 224°
2026-05-04 03:19 29.58334 134.79765 34337 ft 436 kts 224°
2026-05-04 03:20 29.53751 134.75197 34337 ft 436 kts 224°
2026-05-04 03:20 29.49167 134.70633 34337 ft 436 kts 224°
2026-05-04 03:21 29.44585 134.66080 34338 ft 436 kts 224°
2026-05-04 03:21 29.39990 134.61516 34334 ft 437 kts 224°
2026-05-04 03:22 29.35382 134.56946 34336 ft 438 kts 224°
2026-05-04 03:22 29.30789 134.52397 34337 ft 437 kts 224°
2026-05-04 03:23 29.26160 134.47818 34340 ft 439 kts 224°
2026-05-04 03:23 29.21542 134.43256 34338 ft 437 kts 224°
2026-05-04 03:24 29.16924 134.38698 34335 ft 438 kts 224°
2026-05-04 03:24 29.12277 134.34117 34346 ft 439 kts 224°
2026-05-04 03:25 29.07665 134.29578 34349 ft 439 kts 224°
2026-05-04 03:25 29.03012 134.25003 34355 ft 439 kts 224°
2026-05-04 03:26 28.98408 134.20482 34367 ft 440 kts 224°
2026-05-04 03:26 28.93745 134.15909 34367 ft 439 kts 224°
2026-05-04 03:27 28.89094 134.11353 34367 ft 441 kts 224°
2026-05-04 03:27 28.84460 134.06819 34371 ft 440 kts 224°
2026-05-04 03:28 28.79784 134.02249 34369 ft 441 kts 224°
2026-05-04 03:28 28.75104 133.97682 34368 ft 440 kts 224°
2026-05-04 03:29 28.70454 133.93150 34372 ft 442 kts 224°
2026-05-04 03:29 28.65766 133.88586 34369 ft 441 kts 224°
2026-05-04 03:30 28.61107 133.84055 34370 ft 442 kts 224°
2026-05-04 03:30 28.56419 133.79503 34375 ft 443 kts 224°
2026-05-04 03:31 28.51743 133.74968 34371 ft 441 kts 224°
2026-05-04 03:31 28.47033 133.70407 34371 ft 442 kts 224°
2026-05-04 03:32 28.42367 133.65894 34369 ft 442 kts 224°
2026-05-04 03:32 28.37659 133.61345 34370 ft 443 kts 224°
2026-05-04 03:33 28.32960 133.56810 34369 ft 443 kts 224°
2026-05-04 03:33 28.28251 133.52271 34370 ft 444 kts 224°
2026-05-04 03:34 28.23560 133.47755 34373 ft 445 kts 224°
2026-05-04 03:34 28.18836 133.43213 34368 ft 444 kts 224°
2026-05-04 03:35 28.14097 133.38663 34369 ft 444 kts 224°
2026-05-04 03:35 28.11744 133.36403 34107 ft 448 kts 224°
2026-05-04 03:35 28.09369 133.34126 34022 ft 445 kts 223°
2026-05-04 03:36 28.04620 133.29576 34031 ft 447 kts 223°
2026-05-04 03:36 27.99863 133.25024 34028 ft 446 kts 223°
2026-05-04 03:37 27.95128 133.20499 34028 ft 447 kts 223°
2026-05-04 03:37 27.90321 133.15909 34031 ft 448 kts 223°
2026-05-04 03:38 27.85577 133.11395 34033 ft 448 kts 223°
2026-05-04 03:38 27.80790 133.06868 34036 ft 448 kts 223°
2026-05-04 03:39 27.76004 133.02345 34034 ft 446 kts 223°
2026-05-04 03:39 27.71211 132.97819 34032 ft 451 kts 223°
2026-05-04 03:40 27.66389 132.93274 34033 ft 449 kts 223°
2026-05-04 03:40 27.61579 132.88742 34033 ft 450 kts 223°
2026-05-04 03:41 27.56807 132.84253 34036 ft 449 kts 223°
2026-05-04 03:41 27.51982 132.79718 34035 ft 451 kts 223°
2026-05-04 03:42 27.47159 132.75192 34033 ft 449 kts 223°
2026-05-04 03:42 27.42321 132.70656 34036 ft 452 kts 223°
2026-05-04 03:43 27.37511 132.66153 34035 ft 450 kts 223°
2026-05-04 03:43 27.32647 132.61601 34035 ft 453 kts 223°
2026-05-04 03:44 27.27801 132.57075 34037 ft 452 kts 223°
2026-05-04 03:44 27.22939 132.52539 34037 ft 454 kts 223°
2026-05-04 03:45 27.18089 132.48018 34037 ft 453 kts 223°
2026-05-04 03:45 27.13236 132.43501 34036 ft 453 kts 223°
2026-05-04 03:46 27.08357 132.38963 34039 ft 453 kts 223°
2026-05-04 03:46 27.03518 132.34470 34040 ft 454 kts 223°
2026-05-04 03:47 26.98639 132.29944 34048 ft 455 kts 222°
2026-05-04 03:47 26.93739 132.25403 34048 ft 455 kts 223°
2026-05-04 03:48 26.88869 132.20897 34049 ft 455 kts 223°
2026-05-04 03:48 26.83963 132.16360 34048 ft 455 kts 223°
2026-05-04 03:49 26.79097 132.11867 34048 ft 455 kts 223°
2026-05-04 03:49 26.74183 132.07335 34047 ft 455 kts 223°
2026-05-04 03:50 26.69303 132.02840 34047 ft 455 kts 223°
2026-05-04 03:50 26.64401 131.98328 34044 ft 455 kts 223°
2026-05-04 03:51 26.59490 131.93814 34046 ft 457 kts 223°
2026-05-04 03:51 26.54595 131.89320 34043 ft 453 kts 223°
2026-05-04 03:52 26.49712 131.84842 34038 ft 455 kts 222°
2026-05-04 03:52 26.44814 131.80356 34042 ft 455 kts 223°
2026-05-04 03:53 26.39899 131.75859 34042 ft 455 kts 223°
2026-05-04 03:53 26.34992 131.71374 34039 ft 457 kts 223°
2026-05-04 03:54 26.30057 131.66870 34039 ft 455 kts 223°
2026-05-04 03:54 26.25136 131.62381 34037 ft 457 kts 223°
2026-05-04 03:55 26.20248 131.57930 34039 ft 455 kts 222°
2026-05-04 03:55 26.15322 131.53448 34039 ft 455 kts 222°
2026-05-04 03:56 26.10408 131.48982 34039 ft 457 kts 223°
2026-05-04 03:56 26.05479 131.44508 34035 ft 456 kts 223°
2026-05-04 03:57 26.00557 131.40045 34038 ft 456 kts 222°
2026-05-04 03:57 25.95600 131.35556 34039 ft 456 kts 223°
2026-05-04 03:58 25.88169 131.28834 34053 ft 459 kts 222°
2026-05-04 03:58 25.83102 131.24548 34053 ft 459 kts 218°
2026-05-04 03:59 25.77837 131.20479 34049 ft 460 kts 218°
2026-05-04 03:59 25.72586 131.16426 34050 ft 460 kts 218°
2026-05-04 04:00 25.67302 131.12350 34044 ft 461 kts 218°
2026-05-04 04:00 25.61994 131.08260 34038 ft 460 kts 218°
2026-05-04 04:01 25.56759 131.04230 34036 ft 461 kts 218°
2026-05-04 04:01 25.51455 131.00150 34037 ft 458 kts 218°
2026-05-04 04:02 25.46219 130.96126 34030 ft 463 kts 218°
2026-05-04 04:02 25.40927 130.92065 34026 ft 460 kts 218°
2026-05-04 04:03 25.35666 130.88031 34029 ft 461 kts 218°
2026-05-04 04:03 25.30395 130.83995 34036 ft 460 kts 218°
2026-05-04 04:04 25.25097 130.79941 34031 ft 461 kts 218°
2026-05-04 04:04 25.19814 130.75903 34032 ft 461 kts 218°
2026-05-04 04:05 25.14526 130.71866 34022 ft 463 kts 218°
2026-05-04 04:05 25.09209 130.67812 34024 ft 461 kts 218°
2026-05-04 04:06 25.03898 130.63765 34022 ft 462 kts 218°
2026-05-04 04:06 24.98641 130.59766 34025 ft 461 kts 218°
2026-05-04 04:07 24.93327 130.55727 34023 ft 462 kts 218°
2026-05-04 04:07 24.88040 130.51710 34026 ft 462 kts 218°
2026-05-04 04:08 24.82707 130.47665 34025 ft 463 kts 218°
2026-05-04 04:08 24.77383 130.43633 34025 ft 463 kts 218°
2026-05-04 04:09 24.72085 130.39621 34027 ft 465 kts 218°
2026-05-04 04:09 24.66744 130.35582 34024 ft 465 kts 218°
2026-05-04 04:10 24.61390 130.31538 34031 ft 465 kts 217°
2026-05-04 04:10 24.56099 130.27547 34027 ft 465 kts 217°
2026-05-04 04:11 24.50702 130.23479 34025 ft 465 kts 217°
2026-05-04 04:11 24.45395 130.19484 34024 ft 465 kts 218°
2026-05-04 04:12 24.40038 130.15454 34022 ft 465 kts 218°
2026-05-04 04:12 24.34685 130.11427 34020 ft 465 kts 218°
2026-05-04 04:13 24.29406 130.07315 34019 ft 466 kts 218°
2026-05-04 04:13 24.24126 130.03198 34017 ft 466 kts 218°
2026-05-04 04:14 24.18818 129.99066 34016 ft 468 kts 218°
2026-05-04 04:14 24.13497 129.94933 34014 ft 467 kts 218°
2026-05-04 04:15 24.08163 129.90793 34013 ft 467 kts 218°
2026-05-04 04:15 24.02845 129.86671 34009 ft 468 kts 218°
2026-05-04 04:16 23.97533 129.82559 34012 ft 468 kts 218°
2026-05-04 04:16 23.92190 129.78427 34009 ft 468 kts 218°
2026-05-04 04:17 23.86857 129.74307 34010 ft 468 kts 218°
2026-05-04 04:17 23.81556 129.70216 34007 ft 469 kts 218°
2026-05-04 04:18 23.76192 129.66081 34005 ft 468 kts 218°
2026-05-04 04:18 23.70855 129.61971 34003 ft 470 kts 218°
2026-05-04 04:19 23.65491 129.57846 34003 ft 468 kts 218°
2026-05-04 04:19 23.60150 129.53740 34001 ft 470 kts 218°
2026-05-04 04:20 23.54781 129.49618 33999 ft 470 kts 218°
2026-05-04 04:20 23.49424 129.45509 33999 ft 469 kts 218°
2026-05-04 04:21 23.44074 129.41411 33995 ft 471 kts 218°
2026-05-04 04:21 23.38689 129.37289 33997 ft 469 kts 218°
2026-05-04 04:22 23.33369 129.33221 34007 ft 469 kts 218°
2026-05-04 04:22 23.28019 129.29134 34013 ft 469 kts 218°
2026-05-04 04:23 23.22672 129.25055 34018 ft 469 kts 218°
2026-05-04 04:23 23.17275 129.20940 34016 ft 470 kts 218°
2026-05-04 04:24 23.11911 129.16855 34014 ft 469 kts 218°
2026-05-04 04:24 23.06574 129.12795 34015 ft 470 kts 218°
2026-05-04 04:25 23.01207 129.08714 34014 ft 470 kts 218°
2026-05-04 04:25 22.95970 129.04445 34011 ft 468 kts 221°
2026-05-04 04:26 22.90844 129.00070 34012 ft 468 kts 221°
2026-05-04 04:26 22.85703 128.95706 34012 ft 469 kts 221°
2026-05-04 04:27 22.80542 128.91342 34011 ft 469 kts 221°
2026-05-04 04:27 22.75370 128.86978 34012 ft 469 kts 221°
2026-05-04 04:28 22.70182 128.82608 34010 ft 470 kts 221°
2026-05-04 04:28 22.65035 128.78279 34011 ft 468 kts 220°
2026-05-04 04:29 22.59862 128.73933 34009 ft 469 kts 220°
2026-05-04 04:29 22.54703 128.69603 34010 ft 469 kts 220°
2026-05-04 04:30 22.49519 128.65257 34010 ft 470 kts 220°
2026-05-04 04:30 22.44328 128.60908 34009 ft 471 kts 220°
2026-05-04 04:31 22.39153 128.56580 34010 ft 471 kts 220°
2026-05-04 04:31 22.33957 128.52235 34009 ft 470 kts 220°
2026-05-04 04:32 22.28786 128.47917 34009 ft 470 kts 220°
2026-05-04 04:32 22.23600 128.43590 34008 ft 470 kts 220°
2026-05-04 04:33 22.18424 128.39276 34007 ft 471 kts 220°
2026-05-04 04:33 22.13235 128.34955 34005 ft 470 kts 220°
2026-05-04 04:34 22.07989 128.30591 34008 ft 472 kts 220°
2026-05-04 04:34 22.02802 128.26280 34001 ft 472 kts 220°
2026-05-04 04:35 21.97608 128.21967 33995 ft 472 kts 220°
2026-05-04 04:35 21.92387 128.17636 33993 ft 471 kts 220°
2026-05-04 04:36 21.87165 128.13309 33994 ft 470 kts 220°
2026-05-04 04:36 21.81968 128.09006 33992 ft 471 kts 220°
2026-05-04 04:37 21.71567 128.00406 33991 ft 473 kts 220°
2026-05-04 04:38 21.66315 127.96070 33991 ft 473 kts 220°
2026-05-04 04:38 21.61100 127.91769 33991 ft 473 kts 220°
2026-05-04 04:39 21.55839 127.87433 33992 ft 472 kts 220°
2026-05-04 04:39 21.50622 127.83138 33991 ft 471 kts 220°
2026-05-04 04:40 21.45402 127.78844 33990 ft 472 kts 220°
2026-05-04 04:40 21.40188 127.74559 33990 ft 472 kts 220°
2026-05-04 04:41 21.34948 127.70257 33990 ft 472 kts 220°
2026-05-04 04:41 21.29727 127.65974 33989 ft 472 kts 220°
2026-05-04 04:42 21.24492 127.61684 33989 ft 472 kts 220°
2026-05-04 04:42 21.19268 127.57407 33989 ft 472 kts 220°
2026-05-04 04:43 21.14072 127.53157 33988 ft 472 kts 220°
2026-05-04 04:43 21.08844 127.48884 33988 ft 472 kts 220°
2026-05-04 04:44 21.03617 127.44616 33987 ft 472 kts 220°
2026-05-04 04:44 20.98400 127.40340 33988 ft 471 kts 221°
2026-05-04 04:45 20.93224 127.35942 33987 ft 471 kts 221°
2026-05-04 04:47 20.75212 127.20682 33994 ft 472 kts 221°
2026-05-04 04:47 20.70070 127.16340 33991 ft 472 kts 221°
2026-05-04 04:48 20.64890 127.11970 33987 ft 471 kts 221°
2026-05-04 04:49 20.51994 127.01108 33983 ft 471 kts 221°
2026-05-04 04:49 20.46840 126.96773 33981 ft 472 kts 221°
2026-05-04 04:50 20.41660 126.92421 33977 ft 472 kts 221°
2026-05-04 04:50 20.36502 126.88090 33976 ft 473 kts 221°
2026-05-04 04:51 20.31306 126.83733 33975 ft 472 kts 221°
2026-05-04 04:51 20.26162 126.79422 33971 ft 472 kts 221°
2026-05-04 04:52 20.20975 126.75079 33970 ft 472 kts 221°
2026-05-04 04:52 20.15793 126.70744 33969 ft 473 kts 221°
2026-05-04 04:53 20.10604 126.66406 33969 ft 473 kts 221°
2026-05-04 04:53 20.05388 126.62051 33969 ft 474 kts 221°
2026-05-04 04:54 20.00202 126.57723 33968 ft 473 kts 221°
2026-05-04 04:54 19.94999 126.53386 33968 ft 473 kts 221°
2026-05-04 04:55 19.89812 126.49065 33968 ft 474 kts 221°
2026-05-04 04:55 19.84596 126.44724 33967 ft 473 kts 221°
2026-05-04 04:56 19.79437 126.40435 33967 ft 473 kts 221°
2026-05-04 04:56 19.74218 126.36098 33966 ft 473 kts 221°
2026-05-04 04:57 19.69012 126.31777 33973 ft 474 kts 220°
2026-05-04 04:57 19.63795 126.27450 33974 ft 475 kts 220°
2026-05-04 04:58 19.58599 126.23144 33973 ft 474 kts 220°
2026-05-04 04:58 19.53370 126.18814 33973 ft 475 kts 220°
2026-05-04 04:59 19.48129 126.14479 33973 ft 475 kts 220°
2026-05-04 04:59 19.42938 126.10188 33972 ft 474 kts 220°
2026-05-04 05:00 19.37704 126.05866 33972 ft 474 kts 220°
2026-05-04 05:01 19.29892 125.99420 33971 ft 475 kts 220°
2026-05-04 05:01 19.24681 125.95125 33971 ft 474 kts 220°
2026-05-04 05:02 19.19469 125.90833 33971 ft 475 kts 220°
2026-05-04 05:02 19.14234 125.86525 33968 ft 474 kts 220°
2026-05-04 05:03 19.09003 125.82224 33966 ft 474 kts 220°
2026-05-04 05:04 18.98531 125.73626 33965 ft 475 kts 220°
2026-05-04 05:04 18.93306 125.69340 33954 ft 474 kts 220°
2026-05-04 05:06 18.72390 125.52221 33948 ft 475 kts 220°
2026-05-04 05:07 18.67169 125.47957 33947 ft 475 kts 220°
2026-05-04 05:07 18.61935 125.43685 33947 ft 475 kts 220°
2026-05-04 05:09 18.38337 125.24467 33952 ft 475 kts 220°
2026-05-04 05:10 18.33087 125.20200 33952 ft 476 kts 220°
2026-05-04 05:10 18.27814 125.15919 33952 ft 477 kts 220°
2026-05-04 05:11 18.22542 125.11642 33951 ft 476 kts 220°
2026-05-04 05:11 18.17271 125.07368 33951 ft 476 kts 220°
2026-05-04 05:12 18.12045 125.03135 33951 ft 475 kts 220°
2026-05-04 05:12 18.06784 124.98877 33951 ft 475 kts 220°
2026-05-04 05:13 18.01535 124.94631 33950 ft 475 kts 220°
2026-05-04 05:13 17.96302 124.90402 33949 ft 475 kts 220°
2026-05-04 05:14 17.91005 124.86124 33950 ft 476 kts 220°
2026-05-04 05:14 17.85735 124.81872 33947 ft 477 kts 220°
2026-05-04 05:15 17.80465 124.77622 33948 ft 477 kts 220°
2026-05-04 05:15 17.75192 124.73374 33944 ft 476 kts 220°
2026-05-04 05:16 17.69926 124.69134 33943 ft 476 kts 220°
2026-05-04 05:16 17.64666 124.64903 33940 ft 476 kts 220°
2026-05-04 05:17 17.59391 124.60663 33940 ft 476 kts 220°
2026-05-04 05:17 17.54135 124.56441 33941 ft 476 kts 220°
2026-05-04 05:18 17.48851 124.52200 33937 ft 476 kts 220°
2026-05-04 05:18 17.43613 124.47998 33933 ft 476 kts 220°
2026-05-04 05:19 17.38298 124.43739 33933 ft 476 kts 220°
2026-05-04 05:19 17.33056 124.39541 33929 ft 477 kts 220°
2026-05-04 05:20 17.27786 124.35324 33934 ft 476 kts 220°
2026-05-04 05:20 17.22481 124.31083 33937 ft 477 kts 219°
2026-05-04 05:21 17.17198 124.26862 33942 ft 477 kts 219°
2026-05-04 05:21 17.11895 124.22628 33955 ft 478 kts 219°
2026-05-04 05:22 17.06594 124.18399 33951 ft 478 kts 219°
2026-05-04 05:22 17.01309 124.14186 33950 ft 478 kts 219°
2026-05-04 05:23 16.96014 124.09967 33952 ft 477 kts 220°
2026-05-04 05:23 16.90748 124.05776 33952 ft 478 kts 220°
2026-05-04 05:24 16.85428 124.01544 33950 ft 477 kts 220°
2026-05-04 05:24 16.80126 123.97329 33951 ft 477 kts 219°
2026-05-04 05:25 16.74815 123.93110 33951 ft 477 kts 219°
2026-05-04 05:25 16.69522 123.88909 33949 ft 478 kts 219°
2026-05-04 05:26 16.64212 123.84697 33950 ft 478 kts 219°
2026-05-04 05:26 16.58925 123.80506 33948 ft 477 kts 219°
2026-05-04 05:28 16.37682 123.63699 33935 ft 478 kts 219°
2026-05-04 05:29 16.32369 123.59503 33937 ft 478 kts 219°
2026-05-04 05:29 16.27054 123.55308 33933 ft 479 kts 219°
2026-05-04 05:31 16.05769 123.38537 33928 ft 478 kts 219°
2026-05-04 05:32 16.00476 123.34374 33928 ft 477 kts 219°
2026-05-04 05:33 15.92488 123.28097 33937 ft 478 kts 219°
2026-05-04 05:33 15.87171 123.23921 33931 ft 477 kts 219°
2026-05-04 05:34 15.81847 123.19743 33929 ft 479 kts 219°
2026-05-04 05:34 15.76510 123.15559 33929 ft 478 kts 219°
2026-05-04 05:35 15.71213 123.11408 33928 ft 479 kts 219°
2026-05-04 05:35 15.65867 123.07222 33929 ft 478 kts 219°
2026-05-04 05:36 15.60546 123.03057 33926 ft 479 kts 219°
2026-05-04 05:36 15.55220 122.98892 33929 ft 478 kts 219°
2026-05-04 05:37 15.49895 122.94731 33929 ft 479 kts 219°
2026-05-04 05:37 15.44563 122.90567 33921 ft 477 kts 218°
2026-05-04 05:38 15.36588 122.84345 33915 ft 477 kts 218°
2026-05-04 05:38 15.31261 122.80192 33913 ft 478 kts 218°
2026-05-04 05:39 15.23263 122.73960 33913 ft 478 kts 218°
2026-05-04 05:40 15.15294 122.67758 33909 ft 478 kts 218°
2026-05-04 05:40 15.09946 122.63599 33907 ft 479 kts 218°
2026-05-04 05:41 15.04622 122.59461 33905 ft 477 kts 218°
2026-05-04 05:41 14.99259 122.55296 33907 ft 480 kts 218°
2026-05-04 05:42 14.93916 122.51149 33906 ft 477 kts 218°
2026-05-04 05:42 14.88582 122.47012 33903 ft 478 kts 218°
2026-05-04 05:43 14.83216 122.42852 33906 ft 478 kts 218°
2026-05-04 05:45 14.62353 122.25775 33905 ft 477 kts 222°
2026-05-04 05:47 14.42306 122.07700 33897 ft 477 kts 221°
2026-05-04 05:47 14.37298 122.03209 33891 ft 478 kts 221°
2026-05-04 05:48 14.32237 121.98676 33889 ft 478 kts 221°
2026-05-04 05:48 14.27205 121.94171 33875 ft 478 kts 221°
2026-05-04 05:49 14.22171 121.89669 33876 ft 478 kts 221°
2026-05-04 05:49 14.17156 121.85185 33877 ft 479 kts 221°
2026-05-04 05:51 13.96986 121.67184 33909 ft 478 kts 221°
2026-05-04 05:52 13.91908 121.62659 33900 ft 478 kts 221°
2026-05-04 05:52 13.86853 121.58157 33891 ft 478 kts 221°
2026-05-04 05:54 13.66669 121.40209 33862 ft 478 kts 221°
2026-05-04 05:55 13.61623 121.35728 33864 ft 478 kts 221°
2026-05-04 05:55 13.56551 121.31227 33872 ft 478 kts 220°
2026-05-04 05:56 13.51484 121.26733 33874 ft 479 kts 220°
2026-05-04 05:56 13.46401 121.22228 33880 ft 482 kts 220°
2026-05-04 05:57 13.41323 121.17730 33902 ft 481 kts 220°
2026-05-04 05:57 13.36222 121.13213 33954 ft 481 kts 220°
2026-05-04 05:58 13.31159 121.08734 34016 ft 478 kts 220°
2026-05-04 05:58 13.26105 121.04266 34097 ft 479 kts 220°
2026-05-04 05:59 13.21031 120.99781 34143 ft 479 kts 220°
2026-05-04 05:59 13.15948 120.95290 34109 ft 481 kts 220°
2026-05-04 06:00 13.10846 120.90787 34050 ft 481 kts 220°
2026-05-04 06:00 13.05774 120.86311 33998 ft 484 kts 220°
2026-05-04 06:01 13.00636 120.81781 33952 ft 484 kts 220°
2026-05-04 06:03 12.80296 120.63871 33876 ft 480 kts 220°
2026-05-04 06:05 12.57472 120.43821 33869 ft 479 kts 221°
2026-05-04 06:06 12.52389 120.39362 33871 ft 481 kts 221°
2026-05-04 06:06 12.47309 120.34908 33870 ft 479 kts 220°
2026-05-04 06:07 12.42220 120.30450 33867 ft 480 kts 220°
2026-05-04 06:07 12.37129 120.25991 33869 ft 480 kts 220°
2026-05-04 06:08 12.32065 120.21558 33864 ft 481 kts 220°
2026-05-04 06:08 12.26903 120.17043 34375 ft 492 kts 220°
2026-05-04 06:08 12.24320 120.14784 35382 ft 485 kts 220°
2026-05-04 06:09 12.21757 120.12544 35846 ft 484 kts 220°
2026-05-04 06:11 12.01434 119.94798 35867 ft 477 kts 220°
2026-05-04 06:13 11.81123 119.77099 35866 ft 478 kts 220°
2026-05-04 06:14 11.66793 119.62924 35848 ft 480 kts 233°
2026-05-04 06:14 11.64832 119.60175 35848 ft 480 kts 233°
2026-05-04 06:15 11.60923 119.54697 35846 ft 479 kts 233°
2026-05-04 06:15 11.56987 119.49188 35848 ft 480 kts 233°
2026-05-04 06:16 11.53024 119.43645 35846 ft 480 kts 233°
2026-05-04 06:16 11.49100 119.38163 35848 ft 481 kts 233°
2026-05-04 06:17 11.45155 119.32653 35850 ft 480 kts 233°
2026-05-04 06:17 11.41208 119.27145 35851 ft 481 kts 232°
2026-05-04 06:18 11.37247 119.21621 35850 ft 481 kts 232°
2026-05-04 06:20 11.21409 118.99560 35846 ft 483 kts 232°
2026-05-04 06:21 11.11463 118.85731 35849 ft 485 kts 232°
2026-05-04 06:22 11.07460 118.80170 35849 ft 484 kts 232°
2026-05-04 06:25 10.79385 118.41263 35869 ft 487 kts 232°
2026-05-04 06:26 10.75335 118.35654 35867 ft 490 kts 232°
2026-05-04 06:26 10.71289 118.30059 35862 ft 490 kts 232°
2026-05-04 06:27 10.61192 118.16100 35849 ft 490 kts 232°
2026-05-04 06:28 10.57140 118.10506 35849 ft 491 kts 232°
2026-05-04 06:28 10.53086 118.04914 35851 ft 491 kts 232°
2026-05-04 06:29 10.49043 117.99356 35848 ft 484 kts 232°
2026-05-04 06:29 10.45061 117.93892 35847 ft 476 kts 232°
2026-05-04 06:30 10.41155 117.88523 35847 ft 469 kts 232°
2026-05-04 06:30 10.37265 117.83160 35849 ft 479 kts 232°
2026-05-04 06:31 10.35252 117.80383 35848 ft 492 kts 232°
2026-05-04 06:31 10.33206 117.77537 35850 ft 509 kts 233°
2026-05-04 06:31 10.29097 117.71773 35845 ft 492 kts 233°
2026-05-04 06:33 10.12928 117.49193 35847 ft 495 kts 233°
2026-05-04 06:34 10.08876 117.43548 35850 ft 495 kts 233°
2026-05-04 06:34 10.04798 117.37869 35849 ft 495 kts 233°
2026-05-04 06:36 9.88581 117.15318 35848 ft 495 kts 233°
2026-05-04 06:37 9.84495 117.09642 35849 ft 494 kts 233°
2026-05-04 06:37 9.80432 117.04001 35848 ft 495 kts 233°
2026-05-04 06:38 9.76384 116.98383 35850 ft 495 kts 233°
2026-05-04 06:40 9.60120 116.75841 35852 ft 494 kts 233°
2026-05-04 06:40 9.56037 116.70190 35852 ft 494 kts 233°
2026-05-04 06:41 9.51965 116.64555 35847 ft 495 kts 233°
2026-05-04 06:41 9.47908 116.58943 35847 ft 495 kts 233°
2026-05-04 06:42 9.43830 116.53306 35851 ft 494 kts 233°
2026-05-04 06:44 9.27575 116.30859 35848 ft 493 kts 233°
2026-05-04 06:44 9.23493 116.25262 35843 ft 493 kts 233°
2026-05-04 06:45 9.19429 116.19704 35842 ft 492 kts 233°
2026-05-04 06:45 9.15344 116.14117 35847 ft 492 kts 233°
2026-05-04 06:46 9.11260 116.08534 35846 ft 493 kts 233°
2026-05-04 06:46 9.07159 116.02928 35848 ft 492 kts 233°
2026-05-04 06:48 8.90839 115.80646 35848 ft 493 kts 233°
2026-05-04 06:50 8.74415 115.58250 35848 ft 495 kts 233°
2026-05-04 06:51 8.70306 115.52653 35848 ft 496 kts 233°
2026-05-04 06:51 8.66204 115.47067 35845 ft 497 kts 233°
2026-05-04 06:52 8.62065 115.41435 35843 ft 497 kts 233°
2026-05-04 06:52 8.57934 115.35815 35840 ft 497 kts 233°
2026-05-04 06:53 8.53796 115.30189 35834 ft 497 kts 233°
2026-05-04 06:53 8.49672 115.24583 35835 ft 497 kts 233°
2026-05-04 06:54 8.45538 115.18966 35834 ft 498 kts 233°
2026-05-04 06:54 8.41400 115.13345 35836 ft 498 kts 233°
2026-05-04 06:55 8.37254 115.07716 35832 ft 498 kts 233°
2026-05-04 06:55 8.33115 115.02100 35836 ft 499 kts 233°
2026-05-04 06:57 8.16508 114.79586 35846 ft 499 kts 233°
2026-05-04 06:58 8.12355 114.73961 35850 ft 499 kts 233°
2026-05-04 06:58 8.08192 114.68326 35846 ft 498 kts 233°
2026-05-04 06:59 8.04058 114.62732 35850 ft 498 kts 233°
2026-05-04 06:59 7.99916 114.57128 35849 ft 498 kts 233°
2026-05-04 07:01 7.83315 114.34693 35849 ft 497 kts 233°
2026-05-04 07:02 7.79183 114.29113 35846 ft 496 kts 233°
2026-05-04 07:02 7.75053 114.23540 35848 ft 496 kts 233°
2026-05-04 07:03 7.70912 114.17953 35847 ft 497 kts 233°
2026-05-04 07:03 7.66772 114.12369 35847 ft 496 kts 233°
2026-05-04 07:04 7.62647 114.06807 35847 ft 495 kts 233°
2026-05-04 07:04 7.58484 114.01198 35844 ft 496 kts 233°
2026-05-04 07:05 7.54372 113.95657 35835 ft 495 kts 233°
2026-05-04 07:05 7.50236 113.90088 35826 ft 495 kts 233°
2026-05-04 07:06 7.44017 113.81716 35832 ft 496 kts 233°
2026-05-04 07:07 7.39891 113.76164 35833 ft 495 kts 233°
2026-05-04 07:09 7.23332 113.53904 35841 ft 495 kts 233°
2026-05-04 07:09 7.19173 113.48319 35841 ft 496 kts 233°
2026-05-04 07:10 7.15046 113.42777 35845 ft 496 kts 233°
2026-05-04 07:12 6.98454 113.20519 35846 ft 496 kts 233°
2026-05-04 07:12 6.94317 113.14973 35845 ft 496 kts 232°
2026-05-04 07:13 6.90166 113.09412 35846 ft 496 kts 233°
2026-05-04 07:13 6.86008 113.03841 35847 ft 496 kts 233°
2026-05-04 07:14 6.75639 112.89959 35849 ft 495 kts 233°
2026-05-04 07:15 6.71490 112.84408 35847 ft 495 kts 232°
2026-05-04 07:15 6.67341 112.78859 35848 ft 496 kts 232°
2026-05-04 07:16 6.63194 112.73314 35849 ft 496 kts 232°
2026-05-04 07:16 6.59034 112.67753 35849 ft 496 kts 232°
2026-05-04 07:17 6.54892 112.62219 35849 ft 496 kts 232°
2026-05-04 07:17 6.50735 112.56666 35848 ft 495 kts 232°
2026-05-04 07:18 6.46576 112.51112 35842 ft 495 kts 232°
2026-05-04 07:18 6.42440 112.45591 35841 ft 495 kts 232°
2026-05-04 07:19 6.38277 112.40036 35834 ft 495 kts 232°
2026-05-04 07:19 6.34138 112.34515 35836 ft 495 kts 232°
2026-05-04 07:20 6.29970 112.28957 35833 ft 495 kts 232°
2026-05-04 07:20 6.25815 112.23418 35833 ft 494 kts 232°
2026-05-04 07:22 6.09239 112.01334 35846 ft 493 kts 232°
2026-05-04 07:23 6.05114 111.95844 35848 ft 493 kts 232°
2026-05-04 07:23 6.00960 111.90316 35847 ft 494 kts 232°
2026-05-04 07:24 5.96815 111.84802 35847 ft 493 kts 232°
2026-05-04 07:24 5.92675 111.79295 35849 ft 494 kts 232°
2026-05-04 07:26 5.76098 111.57260 35849 ft 493 kts 232°
2026-05-04 07:27 5.71941 111.51739 35846 ft 493 kts 232°
2026-05-04 07:27 5.67801 111.46242 35848 ft 493 kts 232°
2026-05-04 07:28 5.63628 111.40701 35849 ft 494 kts 232°
2026-05-04 07:28 5.59487 111.35206 35850 ft 494 kts 232°
2026-05-04 07:29 5.55341 111.29705 35845 ft 493 kts 232°
2026-05-04 07:29 5.51175 111.24180 35847 ft 493 kts 232°
2026-05-04 07:30 5.47042 111.18698 35846 ft 493 kts 232°
2026-05-04 07:30 5.42860 111.13154 35846 ft 493 kts 232°
2026-05-04 07:31 5.38710 111.07654 35846 ft 493 kts 232°
2026-05-04 07:33 5.22119 110.85677 35828 ft 493 kts 232°
2026-05-04 07:33 5.17959 110.80169 35827 ft 493 kts 232°
2026-05-04 07:34 5.13822 110.74694 35828 ft 493 kts 232°
2026-05-04 07:34 5.09680 110.69213 35835 ft 493 kts 232°
2026-05-04 07:35 5.05512 110.63699 35844 ft 494 kts 232°
2026-05-04 07:35 5.01345 110.58188 35848 ft 494 kts 232°
2026-05-04 07:36 4.97199 110.52707 35848 ft 495 kts 232°